Hourly Data Report for December 16, 2003

SHERBROOKE A
QUEBEC

45°26'00.000" N
71°41'00.000" W
241.40 m
7028124
71610
YSC

Download Data

Hourly Data (December 2003)
Hourly Data Report for December 16, 2003
TIME
LST
Temp Definition
°C
Dew Point Definition
°C
Rel Hum Definition
%
Precip. Amount Definition
mm

Wind Dir Definition
10's deg

Wind Spd Definition
km/h
Visibility Definition
km
Stn Press Definition
kPa
Hmdx Definition


Wind Chill Definition


Weather Definition


00:00 -6.3 -8.6 84   29 30 15.0 98.34   -15  
01:00 -6.9 -9.3 83   29 24 15.0 98.44   -15  
02:00 -7.1 -9.6 82   28 22 15.0 98.57   -15  
03:00 -7.7 -10.0 84   27 28 15.0 98.70   -16 Snow
04:00 -8.1 -10.5 83   28 22 12.9 98.78   -16  
05:00 -8.4 -10.5 85   28 15 6.4 98.89   -15 Snow
06:00 -8.8 -10.7 86   24 7 11.3 98.93   -13  
07:00 -9.2 -10.9 87   22 6 6.4 98.97   -13 Snow
08:00 -9.3 -11.1 87   25 11 24.1 99.09   -15 Mostly Cloudy
09:00 -9.6 -11.6 85   24 7 24.1 99.17   -14 Mainly Clear
10:00 -8.5 -11.5 79   25 6 24.1 99.14   -12 Mainly Clear
11:00 -7.0 -10.9 74   21 6 24.1 99.11   -10 Mainly Clear
12:00 -6.2 -10.4 72   21 9 24.1 99.10   -10 Mostly Cloudy
13:00 -6.1 -9.9 74   17 7 24.1 99.03   -9 Mostly Cloudy
14:00 -5.0 -9.3 72   13 4 24.1 98.97   -7 Mostly Cloudy
15:00 -4.1 -8.6 71     0 24.1 99.00     Mostly Cloudy
16:00 -5.8 -9.1 77   7 6 24.1 98.93   -9 Mainly Clear
17:00 -8.1 -9.8 88   7 6 24.1 98.85   -11 Mainly Clear
18:00 -7.1 -9.3 84   8 13 15.0 98.71   -13  
19:00 -7.2 -9.6 83   7 11 15.0 98.58   -12  
20:00 -8.9 -10.4 89   7 13 15.0 98.49   -15  
21:00 -9.4 -11.1 87   9 7 15.0 98.40   -13  
22:00 -10.0 -11.7 87   10 7 15.0 98.37   -14  
23:00 -9.4 -11.3 86   5 4 15.0 98.30   -12  

Notes on Data Quality.

Legend

  • E = Estimated
  • M = Missing
  • NA = Not Available*
  • [empty] = Indicates an unobserved value
Date modified: